Regional Weather Roundup
Issued by NWS

Home | Current Version | Previous Version | Graphics & Text | Print | Product List | Glossary On
Versions: 1 2 3 4 5 6 7 8 9 10 11 12 13 14 15 16 17 18 19 20 21 22 23 24 25 26 27 28 29 30 31 32 33 34 35 36 37 38 39 40 41 42 43 44 45 46 47 48 49 50
690
ASUS43 KMPX 230510
RWRMN
WEATHER ROUNDUP FOR MINNESOTA
NATIONAL WEATHER SERVICE TWIN CITIES/CHANHASSEN MN
1100 PM CST WED NOV 22 2017


NOTE: "FAIR" INDICATES FEW OR NO CLOUDS BELOW 12,000 FEET WITH NO
SIGNIFICANT WEATHER AND/OR OBSTRUCTIONS TO VISIBILITY. N/A MEANS
CURRENT SKY AND/OR WEATHER CONDITIONS ARE NOT AVAILABLE.

MNZ060>063-068>070-230600-
   Twin Cities Metro

CITY           SKY/WX    TMP DP  RH WIND       PRES   REMARKS
TWIN CITIES    CLOUDY    32  18  56 S8        29.96F WCI  25
ST PAUL        CLOUDY    32  19  58 S8        29.97F WCI  25
CRYSTAL        CLOUDY    30  15  53 S7        29.94F WCI  23
BLAINE         CLOUDY    32  19  59 SE5       29.95F WCI  27
LAKEVILLE      CLOUDY    28  18  64 S6        29.95F WCI  22
EDEN PRAIRIE   CLOUDY    29  17  61 S6        29.94F WCI  23
SOUTH ST PAUL  CLOUDY    33  18  55 SE5       29.96F WCI  28
LAKE ELMO      CLOUDY    32  19  59 SE5       29.97F WCI  27
$$
MNZ001>005-007-008-013>017-022>024-027-028-230600-
   Northwest Minnesota

CITY           SKY/WX    TMP DP  RH WIND       PRES   REMARKS
BEMIDJI        CLOUDY    19  17  89 CALM      29.93R
HALLOCK        CLOUDY    19  18  93 CALM      29.94F
ROSEAU         CLOUDY    16  10  79 CALM      29.93F
WARROAD        CLOUDY    18  12  79 CALM      29.93F
THIEF RVR FALL CLOUDY    22  19  89 CALM      29.94F
CROOKSTON      CLOUDY    23  19  86 CALM      29.97S
FOSSTON        MOCLDY    19  16  86 CALM      29.94S
DETROIT LAKES  CLOUDY    25  18  74 CALM      29.93S
MOORHEAD         N/A     25  16  68 CALM      29.95S
PARK RAPIDS    CLOUDY    22  16  78 CALM      29.92S
MAHNOMEN       FAIR      22  17  79 CALM      29.94R
$$
MNZ006-009>011-018-025>026-230600-
   North Central Minnesota

CITY           SKY/WX    TMP DP  RH WIND       PRES   REMARKS
BAUDETTE       CLOUDY    19  17  92 CALM      29.92F
FLAG ISLAND    CLOUDY    19  18  93 SW7       29.91S WCI  10
INTL FALLS     CLOUDY    19  15  84 CALM      29.93S
WASKISH        CLOUDY    21  18  86 SW3       29.94R
BIG FORK       CLOUDY    21  18  86 SW5       29.93S WCI  15
LONGVILLE      CLOUDY    14  12  92 CALM      29.94F
GRAND RAPIDS   CLOUDY    15  13  91 CALM      29.95F
CRANE LAKE     CLEAR     19  16  86 CALM      29.95S
ORR            CLOUDY    19  16  86 CALM      29.90F
COOK           MOCLDY    19  16  86 SW6       29.93F WCI  11
WALKER         FAIR      16  14  93 CALM      29.93F
$$
MNZ012-019>021-037-230600-
   Northeast Minnesota

CITY           SKY/WX    TMP DP  RH WIND       PRES   REMARKS
DULUTH         CLOUDY    21  19  92 SW7       29.94S WCI  12
ELY            CLOUDY    19  16  86 SW5       29.92F WCI  13
HIBBING        CLOUDY    19  17  92 CALM      29.94F
EVELETH        CLOUDY    20  15  82 SW6       29.95F WCI  12
DULUTH HARBOR  CLOUDY    25  21  86 W5        30.00S WCI  19
TWO HARBORS    CLOUDY    25  19  80 SW6       29.94F WCI  18
SILVER BAY     CLOUDY    23  18  80 CALM      29.94S
GRAND MARAIS     N/A     26  18  71 VRB6      29.97S WCI  19
G MARAIS ARPRT CLOUDY    18  10  73 CALM      29.89S
$$
MNZ029>031-032-039>041-046>048-054>057-064-230600-
   West Central Minnesota

CITY           SKY/WX    TMP DP  RH WIND       PRES   REMARKS
FERGUS FALLS   CLOUDY    23  16  74 E3        29.95S
WHEATON        CLOUDY    21  18  86 CALM      29.94S
MORRIS         CLOUDY    21  16  79 CALM      29.90F
ALEXANDRIA     CLOUDY    22  16  78 CALM      29.91F
ELBOW LAKE     FAIR      23  18  82 E3        29.92S HAZE
WADENA         CLOUDY    19  14  79 CALM      29.92S
GLENWOOD       CLOUDY    21  18  86 CALM      29.91S
APPLETON       CLOUDY    21  16  79 CALM      29.91F
BENSON         CLOUDY    21  16  79 CALM      29.93S
ORTONVILLE     CLOUDY    23  16  74 CALM      29.91S
MADISON        CLOUDY    25  18  74 CALM      29.93R
WILLMAR        FAIR      25  18  74 SE3       29.92F
$$
MNZ033>034-036-042>043-049>051-058-059-230600-
   Central Minnesota

CITY           SKY/WX    TMP DP  RH WIND       PRES   REMARKS
ST CLOUD       CLOUDY    26  16  65 E3        29.93F
SAUK CENTRE    FAIR      22  16  77 CALM      29.92S
PAYNESVILLE    CLOUDY    22  18  86 CALM      29.92F
AITKIN         CLOUDY    21  18  86 CALM      29.94R
PINE RIVER     CLOUDY    19  16  86 CALM      29.97S
BRAINERD       CLOUDY    23  17  78 CALM      29.94S
STAPLES          N/A     21  16  79 CALM      29.92F
LITTLE FALLS   CLOUDY    25  12  58 CALM      29.94S
LITCHFIELD     CLOUDY    25  19  80 CALM      29.92F
BUFFALO        CLOUDY    28  17  62 CALM      29.94F
MAPLE LAKE     CLOUDY    27  20  75 CALM      29.94F
HUTCHINSON     CLOUDY    25  18  76 SE3       29.94F
$$
MNZ037-044-045-052-053-230600-
   East Central Minnesota

CITY           SKY/WX    TMP DP  RH WIND       PRES   REMARKS
PRINCETON      CLOUDY    28  18  64 CALM      29.94F
MORA           CLOUDY    21  18  86 CALM      29.96F
CAMBRIDGE      CLOUDY    28  18  64 CALM      29.95F
RUSH CITY      CLOUDY    23  19  86 SE3       29.96F
MOOSE LAKE     CLOUDY    23  21  93 CALM      29.95S
HINCKLEY       MOCLDY    23  21  93 CALM      29.96F
CLOQUET        CLOUDY    21  18  86 S3        29.95S
MCGREGOR       CLOUDY    23  21  93 CALM      29.95S
$$
MNZ071>073-080-081-089-090-097-098-230600-
   Southwest Minnesota

CITY           SKY/WX    TMP DP  RH WIND       PRES   REMARKS
MONTEVIDEO     CLOUDY    23  16  74 CALM      29.92R
GRANITE FALLS  CLOUDY    24  17  74 CALM      29.93S
CANBY          CLOUDY    38  26  60 NW8       29.92R
MARSHALL       CLOUDY    33  21  61 NW8       29.91S WCI  26
REDWOOD FALLS  CLOUDY    24  15  68 S8        29.92F WCI  15
OLIVIA         CLOUDY    28  19  69 S3        29.91F
PIPESTONE      CLOUDY    27  18  69 CALM      29.92R
WINDOM         CLOUDY    30  14  51 SW8       29.92F WCI  23
WORTHINGTON    CLOUDY    30  20  66 SW9       29.94R WCI  22
JACKSON        CLOUDY    32  19  59 SW10      29.94S WCI  24
SLAYTON        CLOUDY    32  15  48 SW6       29.92S WCI  27
$$
MNZ065>067-074>077-082>085-091>093-230600-
   South Central Minnesota

CITY           SKY/WX    TMP DP  RH WIND       PRES   REMARKS
MANKATO        CLOUDY    29  18  63 S8        29.95F WCI  21
NEW ULM        CLOUDY    25  16  68 CALM      29.93F
ST JAMES       CLOUDY    28  18  64 S9        29.94F WCI  20
FAIRMONT       CLOUDY    27  18  69 VRB3      29.96F
GLENCOE        CLOUDY    27  19  69 SE5       29.93F WCI  22
FARIBAULT      CLOUDY    30  18  59 S8        29.97F WCI  23
OWATONNA       CLEAR     30  18  59 S8        29.97F WCI  23
WASECA         CLEAR     30  19  64 S7        29.97F WCI  23
ALBERT LEA     CLEAR     32  16  51 S8        29.97S WCI  25
$$
MNZ078>079-086>088-094>096-230600-
   Southeast Minnesota

CITY           SKY/WX    TMP DP  RH WIND       PRES   REMARKS
ROCHESTER      CLOUDY    30  18  60 S15       29.99F WCI  19
RED WING       CLOUDY    34  14  44 S6        29.99F WCI  29
STANTON        CLOUDY    30  19  63 S3        29.96F
DODGE CENTER   CLOUDY    28  18  64 S9        29.98S WCI  20
WINONA         CLOUDY    34  19  55 CALM      30.04F
AUSTIN         CLOUDY    28  18  64 S8        29.98F WCI  20
PRESTON        CLOUDY    31  16  54 S13       30.01F WCI  21
$$
ABBREVIATIONS USED IN REMARKS
   TC - TEMPERATURES IN CELSIUS
  WCI - WIND CHILL INDEX
   HX - HEAT INDEX
  VSB - VISIBILITY
$$




USA.gov is the U.S. government's official web portal to all federal, state and local government web resources and services.